| time (UTC) | temp F | wind direction | speed knots | gust knots | rain 1hr in | rain 24hr in | rain mn in | humidity % | barometer mb |
| 20260507152018 | 78 | 56 | 0.0 | 0.9 | 0.00 | 0.00 | 0.00 | 25 | 1012.9 |
| 20260507151033 | 78 | 70 | 0.0 | 3.5 | 0.00 | 0.00 | 0.00 | 24 | 1012.8 |
| 20260507150029 | 77 | 0.0 | 0.0 | 0.00 | 0.00 | 0.00 | 26 | 1012.9 | |
| 20260507145024 | 76 | 57 | 0.0 | 1.7 | 0.00 | 0.00 | 0.00 | 29 | 1012.9 |
| 20260507144020 | 75 | 0.0 | 0.0 | 0.00 | 0.00 | 0.00 | 31 | 1013.0 | |
| 20260507143016 | 73 | 0.0 | 0.0 | 0.00 | 0.00 | 0.00 | 30 | 1012.8 | |
| 20260507142051 | 71 | 59 | 0.0 | 0.9 | 0.00 | 0.00 | 0.00 | 33 | 1012.9 |
| 20260507141027 | 71 | 0.0 | 0.0 | 0.00 | 0.00 | 0.00 | 34 | 1012.6 | |
| 20260507140023 | 70 | 0.0 | 0.0 | 0.00 | 0.00 | 0.00 | 35 | 1012.7 | |
| 20260507135100 | 68 | 0.0 | 0.0 | 0.00 | 0.00 | 0.00 | 37 | 1012.6 | |
| 20260507134035 | 67 | 0.0 | 0.0 | 0.00 | 0.00 | 0.00 | 38 | 1012.5 | |
| 20260507133030 | 65 | 0.0 | 0.0 | 0.00 | 0.00 | 0.00 | 39 | 1012.6 | |
| 20260507132044 | 63 | 0.0 | 0.0 | 0.00 | 0.00 | 0.00 | 42 | 1012.5 | |
| 20260507131019 | 62 | 0.0 | 0.0 | 0.00 | 0.00 | 0.00 | 41 | 1012.3 | |
| 20260507130034 | 62 | 0.0 | 0.0 | 0.00 | 0.00 | 0.00 | 40 | 1012.4 | |
| 20260507125030 | 62 | 0.0 | 0.0 | 0.00 | 0.00 | 0.00 | 40 | 1012.3 | |
| 20260507124025 | 62 | 0.0 | 0.0 | 0.00 | 0.00 | 0.00 | 39 | 1012.4 | |
| 20260507123020 | 62 | 0.0 | 0.0 | 0.00 | 0.00 | 0.00 | 39 | 1012.2 | |
| 20260507122017 | 62 | 0.0 | 0.0 | 0.00 | 0.00 | 0.00 | 38 | 1012.4 | |
| 20260507121032 | 63 | 0.0 | 0.0 | 0.00 | 0.00 | 0.00 | 38 | 1012.3 | |
| 20260507120025 | 63 | 0.0 | 0.0 | 0.00 | 0.00 | 0.00 | 38 | 1012.2 | |
| 20260507115020 | 63 | 0.0 | 0.0 | 0.00 | 0.00 | 0.00 | 37 | 1012.3 | |
| 20260507114017 | 64 | 0.0 | 0.0 | 0.00 | 0.00 | 0.00 | 37 | 1012.2 | |
| 20260507113031 | 64 | 0.0 | 0.0 | 0.00 | 0.00 | 0.00 | 37 | 1012.0 | |
| 20260507112047 | 65 | 0.0 | 0.0 | 0.00 | 0.00 | 0.00 | 36 | 1012.1 | |
| 20260507111021 | 65 | 0.0 | 0.0 | 0.00 | 0.00 | 0.00 | 36 | 1012.2 | |
| 20260507110037 | 65 | 0.0 | 0.0 | 0.00 | 0.00 | 0.00 | 35 | 1012.3 | |
| 20260507105032 | 65 | 0.0 | 0.0 | 0.00 | 0.00 | 0.00 | 36 | 1012.3 | |
| 20260507104027 | 65 | 0.0 | 0.0 | 0.00 | 0.00 | 0.00 | 36 | 1012.5 | |
| 20260507103022 | 65 | 0.0 | 0.0 | 0.00 | 0.00 | 0.00 | 36 | 1012.5 | |
| 20260507102017 | 66 | 0.0 | 0.0 | 0.00 | 0.00 | 0.00 | 36 | 1012.4 | |
| 20260507101032 | 66 | 0.0 | 0.0 | 0.00 | 0.00 | 0.00 | 36 | 1012.5 | |
| 20260507100028 | 66 | 0.0 | 0.0 | 0.00 | 0.00 | 0.00 | 35 | 1012.7 | |
| 20260507095044 | 67 | 0.0 | 0.0 | 0.00 | 0.00 | 0.00 | 35 | 1012.8 | |
| 20260507094018 | 67 | 0.0 | 0.0 | 0.00 | 0.00 | 0.00 | 34 | 1012.8 | |
| 20260507093033 | 67 | 0.0 | 0.0 | 0.00 | 0.00 | 0.00 | 35 | 1012.8 | |
| 20260507092029 | 67 | 0.0 | 0.0 | 0.00 | 0.00 | 0.00 | 34 | 1012.8 | |
| 20260507091044 | 67 | 0.0 | 0.0 | 0.00 | 0.00 | 0.00 | 34 | 1012.9 | |
| 20260507090019 | 68 | 0.0 | 0.0 | 0.00 | 0.00 | 0.00 | 34 | 1012.8 | |
| 20260507085034 | 67 | 0.0 | 0.0 | 0.00 | 0.00 | 0.00 | 34 | 1012.9 | |
| 20260507084029 | 67 | 0.0 | 0.0 | 0.00 | 0.00 | 0.00 | 35 | 1013.0 | |
| 20260507083045 | 67 | 0.0 | 0.0 | 0.00 | 0.00 | 0.00 | 35 | 1013.0 | |
| 20260507082020 | 68 | 0.0 | 0.0 | 0.00 | 0.00 | 0.00 | 34 | 1013.0 | |
| 20260507081035 | 68 | 0.0 | 0.0 | 0.00 | 0.00 | 0.00 | 34 | 1013.1 | |
| 20260507080030 | 68 | 0.0 | 0.0 | 0.00 | 0.00 | 0.00 | 33 | 1013.3 | |
| 20260507075025 | 69 | 0.0 | 0.0 | 0.00 | 0.00 | 0.00 | 33 | 1013.2 | |
| 20260507074020 | 69 | 0.0 | 0.0 | 0.00 | 0.00 | 0.00 | 32 | 1013.2 | |
| 20260507073057 | 70 | 0.0 | 0.0 | 0.00 | 0.00 | 0.00 | 32 | 1013.1 | |
| 20260507072030 | 70 | 0.0 | 0.0 | 0.00 | 0.00 | 0.00 | 32 | 1012.9 | |
| 20260507071024 | 70 | 0.0 | 0.0 | 0.00 | 0.00 | 0.00 | 32 | 1012.9 | |
| 20260507070019 | 70 | 0.0 | 0.0 | 0.00 | 0.00 | 0.00 | 32 | 1013.0 | |
| 20260507065034 | 70 | 0.0 | 0.0 | 0.00 | 0.00 | 0.00 | 32 | 1013.0 | |
| 20260507064029 | 70 | 0.0 | 0.0 | 0.00 | 0.00 | 0.00 | 32 | 1013.0 | |
| 20260507063024 | 70 | 0.0 | 0.0 | 0.00 | 0.00 | 0.00 | 31 | 1013.0 | |
| 20260507062119 | 70 | 0.0 | 0.0 | 0.00 | 0.00 | 0.00 | 31 | 1013.0 | |
| 20260507061053 | 71 | 0.0 | 0.0 | 0.00 | 0.00 | 0.00 | 31 | 1012.8 | |
| 20260507060027 | 71 | 0.0 | 0.0 | 0.00 | 0.00 | 0.00 | 30 | 1012.9 | |
| 20260507055022 | 71 | 0.0 | 0.0 | 0.00 | 0.00 | 0.00 | 30 | 1013.0 | |
| 20260507054037 | 72 | 0.0 | 0.0 | 0.00 | 0.00 | 0.00 | 30 | 1012.9 | |
| 20260507053031 | 72 | 0.0 | 0.0 | 0.00 | 0.00 | 0.00 | 29 | 1013.0 | |
| 20260507052027 | 72 | 0.0 | 0.0 | 0.00 | 0.00 | 0.00 | 29 | 1013.0 | |
| 20260507051021 | 73 | 0.0 | 0.0 | 0.00 | 0.00 | 0.00 | 28 | 1012.8 | |
| 20260507050017 | 73 | 0.0 | 0.0 | 0.00 | 0.00 | 0.00 | 28 | 1012.9 | |
| 20260507045031 | 73 | 0.0 | 0.0 | 0.00 | 0.00 | 0.00 | 27 | 1012.8 | |
| 20260507044026 | 74 | 0.0 | 0.0 | 0.00 | 0.00 | 0.00 | 26 | 1012.6 | |
| 20260507043021 | 74 | 0.0 | 0.0 | 0.00 | 0.00 | 0.00 | 26 | 1012.6 | |
| 20260507042016 | 0 | 0.0 | 0.0 | 0.00 | 0.00 | 0.00 | 1012.6 | ||
| 20260507041031 | 0 | 0.0 | 0.0 | 0.00 | 0.00 | 0.00 | 1012.4 | ||
| 20260507040025 | 76 | 0.0 | 0.0 | 0.00 | 0.00 | 0.00 | 25 | 1012.3 | |
| 20260507035020 | 76 | 0.0 | 0.0 | 0.00 | 0.00 | 0.00 | 25 | 1012.2 | |
| 20260507034035 | 76 | 0.0 | 0.0 | 0.00 | 0.00 | 0.00 | 25 | 1012.1 | |
| 20260507033031 | 77 | 0.0 | 0.0 | 0.00 | 0.00 | 0.00 | 24 | 1012.0 | |
| 20260507032024 | 77 | 0.0 | 0.0 | 0.00 | 0.00 | 0.00 | 24 | 1011.8 | |
| 20260507030035 | 78 | 0.0 | 0.0 | 0.00 | 0.00 | 0.00 | 24 | 1011.7 | |
| 20260507025031 | 78 | 0.0 | 0.0 | 0.00 | 0.00 | 0.00 | 24 | 1011.5 | |
| 20260507024026 | 79 | 0.0 | 0.0 | 0.00 | 0.00 | 0.00 | 23 | 1011.5 | |
| 20260507022036 | 80 | 0.0 | 0.0 | 0.00 | 0.00 | 0.00 | 23 | 1011.3 | |
| 20260507021052 | 80 | 0.0 | 0.0 | 0.00 | 0.00 | 0.00 | 23 | 1011.3 | |
| 20260507020027 | 81 | 0.0 | 0.0 | 0.00 | 0.00 | 0.00 | 22 | 1011.1 | |
| 20260507015021 | 81 | 0.0 | 0.0 | 0.00 | 0.00 | 0.00 | 22 | 1011.4 | |
| 20260507014016 | 82 | 0.0 | 0.0 | 0.00 | 0.00 | 0.00 | 22 | 1011.1 | |
| 20260507013032 | 82 | 0.0 | 0.0 | 0.00 | 0.00 | 0.00 | 22 | 1011.1 | |
| 20260507012027 | 83 | 0.0 | 0.0 | 0.00 | 0.00 | 0.00 | 21 | 1011.2 | |
| 20260507011023 | 83 | 0.0 | 0.0 | 0.00 | 0.00 | 0.00 | 21 | 1011.0 | |
| 20260507010017 | 83 | 0.0 | 0.0 | 0.00 | 0.00 | 0.00 | 21 | 1011.2 | |
| 20260507005054 | 84 | 0.0 | 0.0 | 0.00 | 0.00 | 0.00 | 21 | 1011.1 | |
| 20260507004027 | 84 | 287 | 0.0 | 1.7 | 0.00 | 0.00 | 0.00 | 21 | 1011.1 |
| 20260507003045 | 84 | 205 | 0.0 | 0.9 | 0.00 | 0.00 | 0.00 | 21 | 1011.1 |
| 20260507002018 | 84 | 0.0 | 0.0 | 0.00 | 0.00 | 0.00 | 21 | 1011.0 | |
| 20260507001054 | 84 | 269 | 0.9 | 6.1 | 0.00 | 0.00 | 0.00 | 21 | 1011.0 |
| 20260507000031 | 84 | 250 | 0.0 | 1.7 | 0.00 | 0.00 | 0.00 | 21 | 1011.0 |
| 20260506235025 | 85 | 245 | 0.0 | 5.2 | 0.00 | 0.00 | 0.00 | 22 | 1011.0 |
| 20260506234019 | 84 | 255 | 0.0 | 1.7 | 0.00 | 0.00 | 0.00 | 21 | 1011.2 |
| 20260506233034 | 85 | 265 | 0.0 | 5.2 | 0.00 | 0.00 | 0.00 | 21 | 1011.3 |
| 20260506232029 | 84 | 181 | 0.0 | 5.2 | 0.00 | 0.00 | 0.00 | 22 | 1011.4 |
| 20260506231024 | 84 | 135 | 0.0 | 0.9 | 0.00 | 0.00 | 0.00 | 22 | 1011.5 |
| 20260506230021 | 84 | 247 | 0.0 | 0.9 | 0.00 | 0.00 | 0.00 | 22 | 1011.6 |
| 20260506225034 | 84 | 0.0 | 0.0 | 0.00 | 0.00 | 0.00 | 21 | 1011.7 | |
| 20260506224029 | 84 | 0.0 | 0.0 | 0.00 | 0.00 | 0.00 | 21 | 1011.8 | |
| 20260506223024 | 84 | 0.0 | 0.0 | 0.00 | 0.00 | 0.00 | 21 | 1011.8 | |
| 20260506222018 | 84 | 0.0 | 0.0 | 0.00 | 0.00 | 0.00 | 22 | 1012.0 | |
| 20260506221035 | 83 | 180 | 0.0 | 2.6 | 0.00 | 0.00 | 0.00 | 23 | 1012.2 |
| 20260506220029 | 83 | 0.0 | 0.0 | 0.00 | 0.00 | 0.00 | 20 | 1012.3 | |
| 20260506215023 | 83 | 303 | 0.0 | 0.9 | 0.00 | 0.00 | 0.00 | 22 | 1012.5 |
| 20260506214019 | 83 | 308 | 0.0 | 5.2 | 0.00 | 0.00 | 0.00 | 22 | 1012.6 |
| 20260506213034 | 84 | 298 | 0.0 | 2.6 | 0.00 | 0.00 | 0.00 | 22 | 1012.7 |
| 20260506212030 | 84 | 261 | 0.0 | 0.9 | 0.00 | 0.00 | 0.00 | 23 | 1012.9 |
| 20260506211026 | 83 | 218 | 0.0 | 3.5 | 0.00 | 0.00 | 0.00 | 24 | 1013.0 |
| 20260506210020 | 83 | 190 | 0.0 | 0.9 | 0.00 | 0.00 | 0.00 | 23 | 1013.3 |
| 20260506205015 | 82 | 331 | 0.0 | 3.5 | 0.00 | 0.00 | 0.00 | 23 | 1013.4 |
| 20260506204051 | 82 | 13 | 0.0 | 1.7 | 0.00 | 0.00 | 0.00 | 21 | 1013.6 |
| 20260506203027 | 82 | 283 | 0.0 | 6.1 | 0.00 | 0.00 | 0.00 | 23 | 1013.7 |
| 20260506202022 | 83 | 0.0 | 0.0 | 0.00 | 0.00 | 0.00 | 23 | 1013.6 | |
| 20260506201017 | 82 | 262 | 0.9 | 5.2 | 0.00 | 0.00 | 0.00 | 24 | 1013.9 |
| 20260506200033 | 81 | 335 | 0.0 | 0.9 | 0.00 | 0.00 | 0.00 | 23 | 1013.8 |
| 20260506195028 | 81 | 330 | 0.0 | 1.7 | 0.00 | 0.00 | 0.00 | 23 | 1014.1 |
| 20260506194023 | 81 | 2 | 0.0 | 6.1 | 0.00 | 0.00 | 0.00 | 23 | 1014.2 |
| 20260506193018 | 82 | 283 | 0.0 | 5.2 | 0.00 | 0.00 | 0.00 | 25 | 1014.2 |
| 20260506192034 | 82 | 333 | 0.0 | 3.5 | 0.00 | 0.00 | 0.00 | 23 | 1014.3 |
| 20260506191030 | 83 | 0.0 | 0.0 | 0.00 | 0.00 | 0.00 | 25 | 1014.5 | |
| 20260506190025 | 81 | 293 | 0.0 | 3.5 | 0.00 | 0.00 | 0.00 | 24 | 1014.6 |
| 20260506185020 | 82 | 268 | 0.0 | 0.9 | 0.00 | 0.00 | 0.00 | 24 | 1014.7 |
| 20260506184036 | 81 | 0.0 | 0.0 | 0.00 | 0.00 | 0.00 | 25 | 1014.8 | |
| 20260506183050 | 81 | 295 | 0.0 | 6.1 | 0.00 | 0.00 | 0.00 | 26 | 1015.0 |
| 20260506182026 | 81 | 293 | 0.0 | 5.2 | 0.00 | 0.00 | 0.00 | 28 | 1015.1 |
| 20260506181023 | 81 | 0.0 | 0.0 | 0.00 | 0.00 | 0.00 | 28 | 1015.2 | |
| 20260506180037 | 80 | 260 | 0.0 | 2.6 | 0.00 | 0.00 | 0.00 | 29 | 1015.3 |
| 20260506175033 | 81 | 0.0 | 0.0 | 0.00 | 0.00 | 0.00 | 27 | 1015.3 | |
| 20260506174029 | 80 | 0.0 | 0.0 | 0.00 | 0.00 | 0.00 | 29 | 1015.4 | |
| 20260506173044 | 79 | 0.0 | 0.0 | 0.00 | 0.00 | 0.00 | 29 | 1015.3 | |
| 20260506172021 | 79 | 0.0 | 0.0 | 0.00 | 0.00 | 0.00 | 31 | 1015.5 | |
| 20260506171017 | 79 | 290 | 0.0 | 3.5 | 0.00 | 0.00 | 0.00 | 31 | 1015.3 |
| 20260506170034 | 77 | 0.0 | 0.0 | 0.00 | 0.00 | 0.00 | 32 | 1015.3 | |
| 20260506165030 | 76 | 175 | 0.0 | 2.6 | 0.00 | 0.00 | 0.00 | 32 | 1015.3 |
| 20260506164105 | 75 | 0.0 | 0.0 | 0.00 | 0.00 | 0.00 | 32 | 1015.2 | |
| 20260506163021 | 74 | 271 | 0.0 | 1.7 | 0.00 | 0.00 | 0.00 | 33 | 1015.2 |
| 20260506162015 | 73 | 0.0 | 0.0 | 0.00 | 0.00 | 0.00 | 35 | 1015.2 | |
| 20260506161052 | 72 | 0.0 | 0.0 | 0.00 | 0.00 | 0.00 | 34 | 1015.3 | |
| 20260506160027 | 71 | 0.0 | 0.0 | 0.00 | 0.00 | 0.00 | 35 | 1015.2 | |
| 20260506155022 | 71 | 0.0 | 0.0 | 0.00 | 0.00 | 0.00 | 36 | 1015.3 | |
| 20260506154040 | 70 | 0.0 | 0.0 | 0.00 | 0.00 | 0.00 | 36 | 1015.2 | |
| 20260506153035 | 70 | 0.0 | 0.0 | 0.00 | 0.00 | 0.00 | 37 | 1015.1 | |
| 20260506152052 | 70 | 0.0 | 0.0 | 0.00 | 0.00 | 0.00 | 37 | 1015.3 |